[Date Prev][Date Next][Thread Prev][Thread Next] - [Date Index][Thread Index][Author Index]

2 Line ISS Keps 7-17



ISS
1 25544U 98067A   04199.27968266  .00010183  00000-0  88466-4 0  2373
2 25544  51.6299 172.2307 0006209  14.4201 126.4929 15.69760386323041
----
Via the sarex mailing list at AMSAT.ORG courtesy of AMSAT-NA.
To unsubscribe, send "unsubscribe sarex" to Majordomo@amsat.org



AMSAT Top AMSAT Home